Time,TemperatureF,DewpointF,PressureIn,WindDirection,WindDirectionDegrees,WindSpeedMPH,WindSpeedGustMPH,Humidity,HourlyPrecipIn,Conditions,Clouds,dailyrainin,SoftwareType,DateUTC
2013-07-18 00:12:00,77.0,73.0,-100.00,NE,35,0.0,0.0,87,0.00,,,-99.99,,2013-07-18 04:12:00,
2013-07-18 00:32:00,76.0,73.0,-100.00,ENE,70,0.0,0.0,88,0.00,,,-99.99,,2013-07-18 04:32:00,
2013-07-18 01:02:00,76.0,73.0,-100.00,ENE,60,0.0,1.0,89,0.00,,,-99.99,,2013-07-18 05:02:00,
2013-07-18 01:52:00,76.0,73.0,-100.00,ENE,70,0.0,0.0,90,0.00,,,-99.99,,2013-07-18 05:52:00,
2013-07-18 04:11:00,74.0,72.0,-100.00,NE,35,0.0,0.0,91,0.00,,,-99.99,,2013-07-18 08:11:00,
2013-07-18 05:01:00,74.0,72.0,-100.00,ESE,105,1.0,1.0,92,0.00,,,-99.99,,2013-07-18 09:01:00,
2013-07-18 05:11:00,74.0,72.0,-100.00,East,95,0.0,1.0,92,0.00,,,-99.99,,2013-07-18 09:11:00,
2013-07-18 05:21:00,74.0,72.0,-100.00,East,95,0.0,1.0,92,0.00,,,-99.99,,2013-07-18 09:21:00,
2013-07-18 05:32:00,74.0,72.0,-100.00,East,95,0.0,1.0,92,0.00,,,-99.99,,2013-07-18 09:32:00,
2013-07-18 05:42:00,74.0,72.0,-100.00,ESE,105,0.0,0.0,92,0.00,,,-99.99,,2013-07-18 09:42:00,
2013-07-18 06:01:00,74.0,72.0,-100.00,East,100,0.0,0.0,92,0.00,,,-99.99,,2013-07-18 10:01:00,
2013-07-18 06:11:00,75.0,73.0,-100.00,East,100,0.0,1.0,92,0.00,,,-99.99,,2013-07-18 10:11:00,
2013-07-18 06:32:00,76.0,74.0,-100.00,WNW,300,0.0,1.0,92,0.00,,,-99.99,,2013-07-18 10:32:00,
2013-07-18 06:43:00,76.0,73.0,-100.00,West,270,0.0,2.0,91,0.00,,,-99.99,,2013-07-18 10:43:00,
2013-07-18 07:01:00,76.0,73.0,-100.00,West,270,1.0,3.0,90,0.00,,,-99.99,,2013-07-18 11:01:00,
2013-07-18 07:11:00,76.0,73.0,-100.00,WSW,255,0.0,5.0,89,0.00,,,-99.99,,2013-07-18 11:11:00,
2013-07-18 07:43:00,76.0,73.0,-100.00,SSW,195,0.0,2.0,88,0.00,,,-99.99,,2013-07-18 11:43:00,
2013-07-18 08:11:00,77.0,73.0,-100.00,South,175,0.0,2.0,87,0.00,,,-99.99,,2013-07-18 12:11:00,
2013-07-18 08:22:00,77.0,73.0,-100.00,West,260,0.0,2.0,87,0.00,,,-99.99,,2013-07-18 12:22:00,
2013-07-18 08:42:00,78.0,73.0,-100.00,SE,125,0.0,1.0,87,0.00,,,-99.99,,2013-07-18 12:42:00,
2013-07-18 09:11:00,78.0,73.0,-100.00,East,90,0.0,2.0,86,0.00,,,-99.99,,2013-07-18 13:11:00,
2013-07-18 09:22:00,78.0,73.0,-100.00,ESE,120,1.0,3.0,86,0.00,,,-99.99,,2013-07-18 13:22:00,
2013-07-18 09:32:00,78.0,73.0,-100.00,ESE,120,1.0,3.0,86,0.00,,,-99.99,,2013-07-18 13:32:00,
2013-07-18 10:43:00,84.0,74.0,-100.00,SE,130,1.0,3.0,70,0.00,,,-99.99,,2013-07-18 14:43:00,
2013-07-18 11:01:00,85.0,74.0,-100.00,SSW,195,1.0,4.0,69,0.00,,,-99.99,,2013-07-18 15:01:00,
2013-07-18 11:22:00,86.0,74.0,-100.00,SSE,150,2.0,4.0,66,0.00,,,-99.99,,2013-07-18 15:22:00,
2013-07-18 11:43:00,89.0,74.0,-100.00,ENE,70,1.0,3.0,62,0.00,,,-99.99,,2013-07-18 15:43:00,
2013-07-18 12:11:00,90.0,74.0,-100.00,WNW,290,1.0,3.0,59,0.00,,,-99.99,,2013-07-18 16:11:00,
2013-07-18 12:42:00,90.0,74.0,-100.00,ESE,115,1.0,3.0,59,0.00,,,-99.99,,2013-07-18 16:42:00,
2013-07-18 12:52:00,91.0,74.0,-100.00,ENE,75,1.0,4.0,59,0.00,,,-99.99,,2013-07-18 16:52:00,
2013-07-18 13:02:00,90.0,74.0,-100.00,SE,140,2.0,4.0,60,0.00,,,-99.99,,2013-07-18 17:02:00,
2013-07-18 13:22:00,92.0,73.0,-100.00,ENE,60,1.0,4.0,54,0.00,,,-99.99,,2013-07-18 17:22:00,
2013-07-18 13:33:00,92.0,73.0,-100.00,ENE,60,1.0,4.0,54,0.00,,,-99.99,,2013-07-18 17:33:00,
2013-07-18 13:43:00,90.0,73.0,-100.00,South,175,1.0,4.0,57,0.00,,,-99.99,,2013-07-18 17:43:00,
2013-07-18 13:52:00,90.0,73.0,-100.00,South,175,1.0,4.0,57,0.00,,,-99.99,,2013-07-18 17:52:00,
2013-07-18 14:22:00,89.0,73.0,-100.00,SSE,160,1.0,3.0,59,0.00,,,-99.99,,2013-07-18 18:22:00,
2013-07-18 14:52:00,90.0,74.0,-100.00,NE,45,0.0,3.0,60,0.00,,,-99.99,,2013-07-18 18:52:00,
2013-07-18 15:02:00,89.0,74.0,-100.00,NW,310,5.0,8.0,61,0.00,,,-99.99,,2013-07-18 19:02:00,
2013-07-18 15:22:00,88.0,73.0,-100.00,NW,315,3.0,7.0,61,0.00,,,-99.99,,2013-07-18 19:22:00,
2013-07-18 15:32:00,88.0,73.0,-100.00,NW,315,3.0,7.0,61,0.00,,,-99.99,,2013-07-18 19:32:00,
2013-07-18 15:43:00,90.0,73.0,-100.00,North,5,0.0,1.0,57,0.00,,,-99.99,,2013-07-18 19:43:00,
2013-07-18 15:53:00,90.0,73.0,-100.00,North,5,0.0,1.0,57,0.00,,,-99.99,,2013-07-18 19:53:00,
2013-07-18 16:02:00,93.0,73.0,-100.00,West,260,0.0,6.0,52,0.00,,,-99.99,,2013-07-18 20:02:00,
2013-07-18 16:11:00,94.0,74.0,-100.00,WSW,245,1.0,3.0,51,0.00,,,-99.99,,2013-07-18 20:11:00,
2013-07-18 16:52:00,94.0,73.0,-100.00,SE,135,0.0,3.0,50,0.00,,,-99.99,,2013-07-18 20:52:00,
2013-07-18 17:01:00,94.0,73.0,-100.00,SE,135,0.0,3.0,50,0.00,,,-99.99,,2013-07-18 21:01:00,
2013-07-18 17:11:00,94.0,71.0,-100.00,NE,50,1.0,4.0,46,0.00,,,-99.99,,2013-07-18 21:11:00,
2013-07-18 17:22:00,94.0,72.0,-100.00,ESE,105,0.0,3.0,49,0.00,,,-99.99,,2013-07-18 21:22:00,
2013-07-18 17:32:00,94.0,70.0,-100.00,East,90,1.0,3.0,46,0.00,,,-99.99,,2013-07-18 21:32:00,
2013-07-18 17:43:00,93.0,71.0,-100.00,ESE,105,1.0,3.0,48,0.00,,,-99.99,,2013-07-18 21:43:00,
2013-07-18 18:01:00,93.0,71.0,-100.00,ESE,105,1.0,3.0,48,0.00,,,-99.99,,2013-07-18 22:01:00,
2013-07-18 18:22:00,93.0,71.0,-100.00,ENE,70,1.0,3.0,49,0.00,,,-99.99,,2013-07-18 22:22:00,
2013-07-18 18:32:00,93.0,72.0,-100.00,East,90,1.0,2.0,51,0.00,,,-99.99,,2013-07-18 22:32:00,
2013-07-18 18:43:00,92.0,73.0,-100.00,ENE,75,1.0,2.0,53,0.00,,,-99.99,,2013-07-18 22:43:00,
2013-07-18 19:02:00,93.0,71.0,-100.00,ENE,70,0.0,3.0,50,0.00,,,-99.99,,2013-07-18 23:02:00,
2013-07-18 19:22:00,93.0,74.0,-100.00,ENE,75,0.0,3.0,55,0.00,,,-99.99,,2013-07-18 23:22:00,
2013-07-18 19:32:00,92.0,74.0,-100.00,East,100,0.0,1.0,55,0.00,,,-99.99,,2013-07-18 23:32:00,
2013-07-18 19:52:00,88.0,76.0,-100.00,NNW,345,0.0,0.0,67,0.00,,,-99.99,,2013-07-18 23:52:00,
2013-07-18 20:01:00,87.0,75.0,-100.00,NNE,20,0.0,0.0,68,0.00,,,-99.99,,2013-07-19 00:01:00,
2013-07-18 20:11:00,86.0,75.0,-100.00,ENE,75,0.0,1.0,70,0.00,,,-99.99,,2013-07-19 00:11:00,
2013-07-18 20:22:00,86.0,75.0,-100.00,NE,55,0.0,1.0,70,0.00,,,-99.99,,2013-07-19 00:22:00,
2013-07-18 20:43:00,85.0,76.0,-100.00,East,80,0.0,2.0,74,0.00,,,-99.99,,2013-07-19 00:43:00,
2013-07-18 22:11:00,80.0,74.0,-100.00,East,95,0.0,1.0,84,0.00,,,-99.99,,2013-07-19 02:11:00,
2013-07-18 22:22:00,80.0,75.0,-100.00,NE,35,0.0,2.0,85,0.00,,,-99.99,,2013-07-19 02:22:00,
2013-07-18 22:32:00,80.0,75.0,-100.00,NE,35,0.0,2.0,85,0.00,,,-99.99,,2013-07-19 02:32:00,
2013-07-18 23:01:00,78.0,74.0,-100.00,NE,45,0.0,0.0,86,0.00,,,-99.99,,2013-07-19 03:01:00,
2013-07-18 23:11:00,78.0,74.0,-100.00,NE,45,0.0,0.0,86,0.00,,,-99.99,,2013-07-19 03:11:00,
2013-07-18 23:32:00,78.0,74.0,-100.00,NE,55,0.0,0.0,88,0.00,,,-99.99,,2013-07-19 03:32:00,
2013-07-18 23:43:00,78.0,74.0,-100.00,ENE,70,0.0,0.0,89,0.00,,,-99.99,,2013-07-19 03:43:00,